Regional Weather Roundup
Issued by NWS Upton, NY

Current Version | Previous Version | Graphics & Text | Print | Product List | Glossary Off
Versions: 1 2 3 4 5 6 7 8 9 10 11 12 13 14 15 16 17 18 19 20 21 22 23 24 25 26 27

000
ASUS41 KOKX 191009
RWROKX

REGIONAL WEATHER ROUNDUP
NATIONAL WEATHER SERVICE NEW YORK NY
600 AM EDT TUE SEP 19 2017

NOTE: "FAIR" INDICATES FEW OR NO CLOUDS BELOW 12,000 FEET WITH NO
SIGNIFICANT WEATHER AND/OR OBSTRUCTIONS TO VISIBILITY.

NYZ071-072-176-178-NJZ106-104-191100-
NEW YORK CITY METRO AREA

CITY           SKY/WX    TMP DP  RH WIND       PRES   REMARKS
Central Park   CLOUDY    71  66  84 VRB5G17   30.05S
Bronx Bot Gard   N/A     70  64  83 NE2       30.04R
LaGuardia APRT CLOUDY    71  67  87 NE15      30.01S
Kennedy INTL   CLOUDY    71  67  87 N16       30.01F
Breezy Point     N/A     70 N/A N/A NE13        N/A
Newark/Liberty CLOUDY    70  67  90 N14       30.02S
Teterboro      DRIZZLE   70  66  87 N9        30.02S
$$

NYZ177-179-078>081-191100-
LONG ISLAND NEW YORK

CITY           SKY/WX    TMP DP  RH WIND       PRES   REMARKS
Jones Beach      N/A     70 N/A N/A NE20        N/A
Matinecock PT    N/A     70 N/A N/A NE20        N/A
Farmingdale    CLOUDY    70  66  87 NE13      30.00F
MacArthur/ISP  CLOUDY    69  67  93 NE16      30.00F
Shirley        CLOUDY    71  67  87 N10G18    30.01F
Mt Sinai Harb    N/A    N/A N/A N/A NE9G15      N/A
Westhampton    LGT RAIN  68  64  87 NE18G26   30.01F
East Hampton   CLOUDY    66  64  91 NE8G22    30.01F
Montauk          N/A     67  66  97 NE9G20    30.04F
$$

NYZ052-065-067-191100-
HUDSON VALLEY

CITY           SKY/WX    TMP DP  RH WIND       PRES   REMARKS
White Plains   CLOUDY    69  65  86 N9        30.04S
Larchmont Harb   N/A     70 N/A N/A N15         N/A
Croton On Huds   N/A     68 N/A N/A NE2G8       N/A
Newburgh       CLOUDY    66  66 100 NE12      30.09S
Montgomery     CLOUDY    65  63  93 N9        30.07F
Poughkeepsie   CLOUDY    66  62  87 N5        30.06F
Albany         PTCLDY    60  58  92 CALM      30.11S FOG
$$

NJZ001-105-106-008-010-013-015-019>022-104-191100-
NEW JERSEY

CITY           SKY/WX    TMP DP  RH WIND       PRES   REMARKS
Newark/Liberty CLOUDY    70  67  90 N14       30.02S
Teterboro      DRIZZLE   70  66  87 N9        30.02S
Caldwell       CLOUDY    68  68 100 NE6       30.04S FOG
Somerville     NOT AVBL
Linden         CLOUDY    70  66  85 NE10      30.01S
Perth Amboy      N/A     70 N/A N/A N10G17      N/A
Sussex         CLOUDY    66  64  93 NE6       30.06F
Andover          N/A     65  64  97 N5        30.06F
Trenton        CLOUDY    70  67  90 NE10      29.99F
Millville      CLOUDY    73  70  90 N15G21    29.94S
Atlantic City  CLOUDY    71  68  90 N13       29.93S
Wrightstown    DRIZZLE   69  68  96 N13       29.95F
Toms River     CLOUDY    70  68  93 N12G22    29.97S
Belmar         CLOUDY    70  67  90 N12       29.99F
$$

PAZ047>061-062-071-191100-
EASTERN PENNSYLVANIA

CITY           SKY/WX    TMP DP  RH WIND       PRES   REMARKS
Philadelphia   CLOUDY    71  67  87 NE14      29.99S
Allentown      CLOUDY    69  64  84 N3        30.04S
Scranton       PTCLDY    62  61  96 CALM      30.09R
$$

CTZ002-004>006-009-010-012-RIZ004-006-007-MAZ004-011-015-191100-
SOUTHERN NEW ENGLAND
 IN CT

CITY           SKY/WX    TMP DP  RH WIND       PRES   REMARKS
Bradley INTL   CLOUDY    66  63  90 N10       30.09F
Hartford       CLOUDY    68  64  87 N8        30.08S
Danbury        CLOUDY    68  65  90 NE7       30.07F
Wtrbury/Oxford CLOUDY    65  63  93 NE14      30.08S
Norwalk Harbor   N/A     68 N/A N/A N14         N/A
Bridgeport     CLOUDY    69  64  84 NE14      30.03F
Meriden        CLOUDY    67  63  87 N6        30.07S
New Haven      MOCLDY    68  64  87 N10       30.04F
Chester        CLOUDY    68  64  88 NE8       30.06F
Groton         MOCLDY    67  64  90 NE13      30.03F
Wilimantic     CLOUDY    67  64  90 NE8       30.08S

 IN RI

CITY           SKY/WX    TMP DP  RH WIND       PRES   REMARKS
Providence     CLOUDY    65  65 100 NE13      30.08F
Block Island   LGT RAIN  66  65  96 NE12G21   30.05S
Westerly       LGT RAIN  67  64  90 NE10G20   30.05F
 IN MA

CITY           SKY/WX    TMP DP  RH WIND       PRES   REMARKS
Boston         CLOUDY    63  63 100 NE10      30.12S FOG
Worcester      FOG       60  59  96 NE8       30.13F VSB 1/4
Westfield      CLOUDY    66  64  93 N8        30.10F
Provincetown   LGT RAIN  64  63  96 NE12      30.10S VSB 1/2
Nantucket      FOG       64  64 100 NE15      30.04F VSB 1/4
$$

ANZ330-335-338-340-345-350-353-355-191100-
COASTAL MARINE OBSERVATIONS


STATION/POSITION TIME  SKY/WX   TEMP    WIND        PRES    VSBY  WAVE
                                AIR SEA DIR/SP/G                  HT/PER
                 (UTC)          (F)     (DEG/KT/KT) (MB)    (MI)  (FT/S)
NY HARB ENTRANCE 0850            71 71   40/ 19/ 23 1014.3          8/13
20 S FIRE ISLAND 0950            69 69   40/ 25/ 31 1013.5         13/13
GREAT SOUTH BAY  0930            70 73   30/ 16/ 19   N/A
23 SSW MONTAUK P 0950            67 67              1015.1         10/14
15 E BARNEGAT LI 0930               71                N/A          10/13
HUDSON CANYON    0850            70 69   40/ 25/ 33 1010.4         16/14
KINGS POINT      0930            70 71   60/ 10/ 14 1017.3
EXECUTION ROCKS  0945            71      50/ 16/ 19   N/A
WESTERN LI SOUND NOT AVBL
CENTRAL LI SOUND NOT AVBL
EASTERN LI SOUND NOT AVBL
ROBBINS REEF     0936            71      40/ 15/ 20 1016.6
$$


>>>>>>>>>>>>>>>>>>>>>>>>>>>> KEY <<<<<<<<<<<<<<<<<<<<<<<<<<<
>                                                          <
>     SKY/WX - Sky Condition/Present Weather               <
>     TMP    - Temperature in Fahrenheit                   <
>     DP     - Dew Point in Fahrenheit                     <
>     RH     - Relative Humidity in Percent                <
>     WIND   - Direction (from) and Speed in MPH           <
>     PRES   - Mean Sea Level Pressure (inches of Hg)      <
>     WCI    - Wind Chill Index                            <
>     VSB    - VISIBILITY IN MILES                         <
>     HX     - HEAT INDEX                                  <
>     TC     - TEMPERATURE IN CELSIUS                      <
>     VRB    - VARIABLE WIND DIRECTION                     <
>                                                          <
>>>>>>>>>>>>>>>>>>>>>>>>>>>> KEY <<<<<<<<<<<<<<<<<<<<<<<<<<<




USA.gov is the U.S. government's official web portal to all federal, state and local government web resources and services.